Location: Ambatotampy
(18.8181°S, 47.6186°E)
Time: 00:15:32
(UTC+00:00)

SL-24 DEB - Pass Details

Date: 21 January 2021
Orbit: 667 x 698 km, 92.0° (Epoch: 24 February)

Event Time Altitude Azimuth Distance (km) Brightness Sun altitude
Rises 00:20:34 0° 173° (S) 3,075 8.2 -27.6°
Reaches altitude 10° 00:22:51 10° 171° (S) 2,148 7.3 -27.1°
Maximum altitude 00:27:35 78° 85° (E) 702 4.2 -26.2°
Enters shadow 00:27:38 78° 78° (ENE) 702 4.2 -26.2°
